User: anonymous   Login
Location: Ferintosh
(52.7647°N, 112.9692°W)
Time: 20:05:25
(UTC+00:00)
Language:

A-11 Canister half - Orbit

View from above orbital plane
View from above orbital plane
View from above satellite
View from above satellite

Ground track
Ground track

The orbit data is extracted from the following two-line orbital elements,

1    51U 60009C   24148.20785768 -.00000137  00000-0 -49907-3 0  9998
2    51  47.2111 213.0709 0106985 124.4835 236.6113 12.18327627839609
Epoch (UTC): 27 May 2024 04:59:18
Eccentricity: 0.0106985
inclination: 47.2111°
perigee height: 1514 km
apogee height: 1685 km
right ascension of ascending node: 213.0709°
argument of perigee: 124.4835°
revolutions per day: 12.18327627
mean anomaly at epoch: 236.6113°
orbit number at epoch: 83960

The dashed part of the orbit path shows where the satellite is in the earth's shadow,  

DLR